[[{"header":{"parameterUnit":"m.s-1","parameterCategory":1,"la1":30.2991,"la2":30.254,"lo1":-89.0895,"lo2":-89.0444,"dy":0.0017,"dx":0.0017,"nx":28,"ny":28,"refTime":"2025-08-13T21:00:00:Z","depth":0,"parameterNumber":2,"parameterNumberName":"U-component_of_WINDS"},"data":[0,0,0,0,0,0,0,0,0,0,0,0,0,0,0,0,0,0,0,0,0,0,0,0,0,0,0,0,0,0,0,0,0,0,0,0,0,0,0,0,0,0,0,0,0,0,0,0,0,0,0,0,0,0,0,0,0,0,1.9547,1.9547,0,1.9606,1.9607,1.9607,1.9562,1.956,1.9558,1.9556,1.9617,1.962,1.9624,0,0,0,0,0,0,0,0,0,0,0,0,0,1.9394,1.9397,1.9546,1.9547,1.9548,1.9606,1.9607,1.9607,1.9563,1.956,1.9558,1.9556,1.9616,1.962,1.9624,0,0,0,0,0,0,0,0,0,0,0,0,0,1.9457,1.9398,1.9546,1.9533,1.9532,1.9606,1.9607,1.9608,1.9563,1.956,1.9557,1.9554,1.9614,1.9619,1.9625,1.9715,0,0,1.964,1.9643,0,0,0,0,0,0,0,0,1.9454,1.9463,1.9534,1.9534,1.9533,1.9574,1.9575,1.9644,1.9564,1.9551,1.9556,1.9553,1.9605,1.9611,1.9628,1.9718,1.972,1.9641,1.9644,1.9646,1.9648,0,0,0,0,0,0,0,1.9449,1.946,1.957,1.9535,1.9534,1.9523,1.9529,1.9588,1.9594,1.9552,1.9549,1.9557,1.9604,1.9623,1.9629,1.9721,1.9641,1.9645,1.9648,1.965,1.9887,1.989,0,0,0,0,0,0,1.9446,1.9457,1.9568,1.9572,1.9485,1.9528,1.9535,1.9564,1.9593,1.9595,1.9559,1.9554,1.9616,1.9623,1.9631,1.9738,1.9646,1.9651,1.9654,1.9884,1.9888,1.9891,0,0,0,0,0,0,1.9443,1.9457,1.9566,1.9513,1.9526,1.9534,1.9567,1.9566,1.9585,1.9598,1.9599,1.9578,1.9614,1.9624,1.9694,1.974,1.9653,1.9658,1.988,1.9885,1.989,1.9953,0,0,0,0,0,0,1.9439,1.9456,1.949,1.9515,1.9529,1.9628,1.957,1.957,1.9594,1.9589,1.9616,1.9618,1.9612,1.9687,1.9699,1.9745,1.9662,1.9876,1.9882,1.9888,1.9947,1.996,1.997,0,0,0,0,0,1.9434,1.9506,1.9492,1.9506,1.9573,1.9631,1.9639,1.9632,1.9598,1.9633,1.9641,1.9617,1.9733,1.9694,1.9708,1.9756,1.9873,1.9881,1.9888,1.9942,1.9957,1.997,0,0,0,0,0,0,1.9487,1.9509,1.9494,1.9576,1.9602,1.9623,1.9666,1.9649,1.9684,1.9677,1.9667,1.9673,1.9747,1.9759,1.9715,1.9845,1.9798,1.9808,1.9834,1.9849,1.986,1.9855,1.9666,0,0,0,0,0,1.9508,1.9554,1.9571,1.9642,1.9655,1.9659,1.9684,1.9676,1.9702,1.9713,1.9726,1.9752,1.9794,1.9822,1.9862,1.9949,1.9954,1.9989,2.0,2.001,2.0018,2.0064,2.008,1.9915,1.9915,1.9915,0,0,1.9553,1.957,1.96,1.9653,1.9672,1.9719,1.9668,1.972,1.9755,1.9721,1.9787,1.9798,1.9827,1.9905,1.9941,1.9917,2.0065,2.0019,2.0026,2.003,2.0073,2.0089,2.0103,1.992,1.9919,1.9918,0,0,1.9657,1.9676,1.9737,1.9757,1.9786,1.9788,1.9803,1.9827,1.9833,1.99,1.9875,1.9916,1.9989,2.001,2.003,2.0143,2.0122,2.0156,2.0217,2.0261,2.0274,2.0286,2.0325,2.0339,2.0165,2.0165,2.0166,0,1.9709,1.9779,1.977,1.9824,1.9848,1.9819,1.988,1.99,1.9941,1.9958,1.9932,2.0022,2.004,2.0122,2.015,2.0168,2.0183,2.0153,2.0273,2.0285,2.0295,2.0332,2.0347,2.0169,2.0169,2.0169,2.0168,0,1.984,1.9889,1.9934,1.9975,2.0004,2.0061,2.0061,2.0091,2.0081,2.0086,2.0154,2.0174,2.0216,2.0236,2.0226,2.0317,2.0302,2.0275,2.0227,2.0315,2.035,2.0364,2.0175,2.0174,2.0172,2.0171,0,0,1.9978,2.0014,2.003,2.0048,2.0079,2.0116,2.0172,2.0214,2.024,2.0269,2.0315,2.0378,2.0353,2.0376,2.0369,2.0408,2.0495,2.0376,2.0377,2.0397,2.0595,2.0614,2.0631,2.0482,2.0484,2.0486,2.0592,0,2.0084,2.0181,2.0175,2.0267,2.0311,2.0285,2.0334,2.0358,2.0364,2.0402,2.0408,2.0453,2.0417,2.043,2.0469,2.0477,2.0535,2.0469,2.0523,2.0525,2.0516,2.0649,2.067,2.0769,2.0606,2.0608,2.061,0,2.0219,2.0253,2.0349,2.0373,2.0391,2.0435,2.0473,2.051,2.0537,2.0538,2.0564,2.055,2.0606,2.0558,2.0634,2.059,2.0612,2.0619,2.0623,2.0627,2.0572,2.0656,2.0801,2.0815,2.0632,2.063,2.0628,0,2.0309,2.0379,2.0446,2.0462,2.0491,2.0523,2.0536,2.056,2.0585,2.0618,2.0634,2.0674,2.0695,2.0725,2.0722,2.0688,2.08,2.0751,2.0802,2.0802,2.0825,2.0824,2.0975,2.0842,2.0842,2.0841,2.0841,0,2.0427,2.0486,2.0486,2.0527,2.0593,2.0586,2.0651,2.0661,2.0682,2.0724,2.0704,2.0743,2.0737,2.0777,2.0775,2.0838,2.0848,2.085,2.0849,2.0851,2.0851,2.0865,2.0857,2.0845,2.0844,2.0844,2.0843,0,2.0538,2.0541,2.0611,2.0633,2.064,2.0688,2.0707,2.0745,2.0749,2.0802,2.0814,2.0821,2.0867,2.0867,2.0919,2.0918,2.0994,2.0986,2.0985,2.0983,2.1033,2.1028,2.1197,2.1219,2.1073,2.1074,2.1076,0,2.0612,2.0657,2.0685,2.0711,2.0727,2.077,2.0796,2.0791,2.0819,2.0852,2.0886,2.093,2.0964,2.1038,2.1047,2.1087,2.1078,2.1135,2.1084,2.1085,2.1078,2.1075,2.1078,2.1144,2.1146,2.1147,2.1148,0,2.0743,2.0742,2.078,2.082,2.0851,2.0882,2.091,2.0933,2.0931,2.0963,2.1009,2.1036,2.1089,2.1132,2.117,2.1184,2.1166,2.1165,2.1178,2.1181,2.1178,2.1179,2.1011,2.116,2.1159,2.1158,2.1158,2.1157,2.0837,2.0875,2.0901,2.0944,2.0965,2.0992,2.1028,2.1038,2.1077,2.1119,2.1114,2.1166,2.119,2.124,2.1256,2.1296,2.1276,2.1296,2.1301,2.1306,2.1311,2.1173,2.1303,2.1303,2.1303,2.1302,2.1302,0,2.0965,2.0981,2.1021,2.1061,2.1095,2.1076,2.1106,2.1135,2.1181,2.1206,2.1241,2.1293,2.1335,2.1348,2.1388,2.1418,2.141,2.1428,2.1426,2.1429,2.1327,2.131,2.1434,2.1434,2.1434,2.1434,2.1434,2.1433,2.1036,2.11,2.1103,2.1177,2.1191,2.1242,2.1261,2.1285,2.1305,2.1365,2.14,2.1408,2.1428,2.147,2.1507,2.151,2.1525,2.1546,2.1545,2.1449,2.1436,2.1423,2.1408,2.155,2.155,2.1644,2.1645,2.1645]},{"header":{"parameterUnit":"m.s-1","parameterCategory":1,"la1":30.2991,"la2":30.254,"lo1":-89.0895,"lo2":-89.0444,"dy":0.0017,"dx":0.0017,"nx":28,"ny":28,"refTime":"2025-08-13T21:00:00:Z","depth":0,"parameterNumber":3,"parameterNumberName":"V-component_of_WINDS"},"data":[0,0,0,0,0,0,0,0,0,0,0,0,0,0,0,0,0,0,0,0,0,0,0,0,0,0,0,0,0,0,0,0,0,0,0,0,0,0,0,0,0,0,0,0,0,0,0,0,0,0,0,0,0,0,0,0,0,0,6.0774,6.0775,0,6.088,6.0881,6.0882,6.0834,6.0832,6.0829,6.0827,6.0926,6.093,6.0935,0,0,0,0,0,0,0,0,0,0,0,0,0,6.0523,6.0528,6.0774,6.0775,6.0777,6.0879,6.0881,6.0882,6.0835,6.0832,6.0828,6.0825,6.0924,6.093,6.0936,0,0,0,0,0,0,0,0,0,0,0,0,0,6.063,6.0529,6.0774,6.0766,6.0766,6.0879,6.0881,6.0883,6.0835,6.0832,6.0828,6.0824,6.0922,6.0929,6.0937,6.1061,0,0,6.096,6.0963,0,0,0,0,0,0,0,0,6.0624,6.0639,6.0766,6.0766,6.0767,6.084,6.0828,6.0942,6.0836,6.0809,6.0827,6.0822,6.09,6.0909,6.0937,6.1066,6.107,6.096,6.0965,6.0968,6.097,0,0,0,0,0,0,0,6.0617,6.0634,6.0815,6.0767,6.0768,6.0754,6.0765,6.085,6.0874,6.0811,6.0808,6.0821,6.0899,6.093,6.0939,6.1071,6.096,6.0967,6.0972,6.0975,6.1306,6.131,0,0,0,0,0,0,6.0611,6.0629,6.0812,6.0819,6.0685,6.0761,6.0774,6.082,6.0873,6.0878,6.0825,6.0819,6.0919,6.093,6.0942,6.109,6.0968,6.0975,6.098,6.1302,6.1307,6.1311,0,0,0,0,0,0,6.0605,6.0627,6.0808,6.0723,6.0745,6.077,6.0823,6.0824,6.0855,6.0884,6.0887,6.0852,6.0916,6.0931,6.1032,6.1093,6.0979,6.0986,6.1297,6.1303,6.1309,6.1388,0,0,0,0,0,0,6.0598,6.0626,6.0676,6.0725,6.075,6.0899,6.0826,6.0829,6.0869,6.0863,6.091,6.0914,6.0914,6.1021,6.104,6.1101,6.0992,6.1291,6.13,6.1307,6.138,6.1396,6.141,0,0,0,0,0,6.059,6.0692,6.0678,6.0701,6.0813,6.0903,6.0917,6.0917,6.0874,6.0923,6.0941,6.0913,6.1084,6.1032,6.1052,6.1117,6.1287,6.1297,6.1307,6.1373,6.1393,6.141,0,0,0,0,0,0,6.0646,6.0698,6.0684,6.0805,6.0851,6.0895,6.0956,6.0938,6.0994,6.0985,6.098,6.0992,6.1096,6.1116,6.1058,6.1239,6.1178,6.1193,6.1222,6.1241,6.1256,6.1248,6.0998,0,0,0,0,0,6.0673,6.0745,6.0785,6.0889,6.0912,6.0931,6.097,6.0967,6.1012,6.103,6.1055,6.1098,6.1161,6.1202,6.1262,6.1383,6.1391,6.1438,6.1453,6.1465,6.1476,6.154,6.1561,6.1343,6.1343,6.1343,0,0,6.0728,6.0766,6.0811,6.0901,6.0935,6.1007,6.0947,6.1025,6.1077,6.104,6.1138,6.1158,6.1205,6.1317,6.1367,6.1337,6.1539,6.1477,6.1487,6.1492,6.1552,6.1573,6.1591,6.135,6.1348,6.1347,0,0,6.0866,6.0903,6.0993,6.1029,6.1084,6.1095,6.1117,6.1165,6.1178,6.1276,6.125,6.131,6.1419,6.1454,6.1485,6.1637,6.1612,6.1656,6.1734,6.1797,6.1814,6.1829,6.1881,6.19,6.1668,6.1668,6.1668,0,6.0927,6.1038,6.104,6.1122,6.1161,6.1134,6.1223,6.1257,6.1327,6.1353,6.132,6.1457,6.1486,6.1604,6.1642,6.1669,6.1691,6.165,6.1812,6.1827,6.1841,6.1891,6.1911,6.1673,6.1673,6.1672,6.1672,0,6.1109,6.1186,6.1251,6.1323,6.137,6.1454,6.1467,6.1513,6.1506,6.152,6.1619,6.1655,6.1721,6.1749,6.1741,6.1866,6.1846,6.1812,6.175,6.1867,6.1913,6.1933,6.168,6.1679,6.1677,6.1676,0,0,6.1283,6.1357,6.1381,6.1413,6.1471,6.1529,6.1611,6.1679,6.1718,6.1767,6.1834,6.1928,6.1897,6.1933,6.1929,6.1985,6.2101,6.1944,6.1945,6.1971,6.2238,6.2262,6.2284,6.2085,6.2089,6.2092,6.2233,0,6.1424,6.1573,6.1578,6.1711,6.1781,6.1757,6.1828,6.187,6.1886,6.1945,6.196,6.2027,6.1983,6.2004,6.2058,6.2075,6.2154,6.2065,6.2144,6.2147,6.2132,6.2308,6.2334,6.2466,6.2252,6.2255,6.2257,0,6.1608,6.1667,6.1809,6.1857,6.1886,6.1951,6.2013,6.2071,6.2117,6.2124,6.2165,6.2153,6.2234,6.2172,6.2282,6.2222,6.2254,6.2268,6.2273,6.2278,6.2208,6.2317,6.2508,6.2527,6.2286,6.2284,6.2282,0,6.1719,6.1833,6.1933,6.1961,6.202,6.2066,6.2092,6.2135,6.2175,6.2228,6.2254,6.2315,6.2348,6.2394,6.2398,6.2352,6.2508,6.2446,6.2514,6.2514,6.2546,6.2544,6.2743,6.257,6.257,6.257,6.2569,0,6.1875,6.1962,6.1983,6.2044,6.2141,6.2145,6.2239,6.226,6.2299,6.2361,6.2344,6.2402,6.2404,6.2463,6.2466,6.2556,6.2571,6.2577,6.2577,6.2578,6.2577,6.2598,6.2588,6.2575,6.2574,6.2573,6.2572,0,6.2014,6.2033,6.2139,6.2188,6.2202,6.2271,6.231,6.2367,6.2382,6.2461,6.248,6.2501,6.257,6.2579,6.2658,6.266,6.2768,6.2758,6.2753,6.2751,6.2818,6.2811,6.3036,6.3065,6.2875,6.2877,6.2878,0,6.2112,6.2179,6.2236,6.2278,6.2308,6.2376,6.2418,6.2424,6.2467,6.2525,6.2574,6.2642,6.2696,6.2806,6.2827,6.2887,6.2878,6.2953,6.2886,6.2885,6.2877,6.2872,6.2878,6.2964,6.2967,6.2968,6.297,0,6.2282,6.2288,6.2351,6.2418,6.2469,6.2521,6.2569,6.2604,6.2616,6.2665,6.2737,6.2779,6.2862,6.2928,6.2988,6.3011,6.2992,6.2991,6.3009,6.3011,6.3004,6.3007,6.2786,6.2985,6.2984,6.2982,6.2982,6.2981,6.2402,6.2461,6.2511,6.2581,6.2619,6.2665,6.2721,6.2744,6.2805,6.2874,6.2873,6.2951,6.2994,6.3073,6.3101,6.316,6.3135,6.3162,6.3169,6.3175,6.3181,6.2997,6.3171,6.317,6.317,6.317,6.3169,0,6.2571,6.2602,6.2667,6.2737,6.2792,6.2774,6.2826,6.2872,6.2943,6.2986,6.3041,6.3122,6.3187,6.3213,6.3276,6.3318,6.331,6.3334,6.333,6.3335,6.3201,6.3178,6.3339,6.3339,6.3339,6.3339,6.3338,6.3338,6.2664,6.2762,6.2774,6.2889,6.2919,6.2998,6.303,6.3071,6.3106,6.3199,6.3254,6.3272,6.3308,6.3373,6.3431,6.3436,6.3459,6.3486,6.3488,6.3362,6.3344,6.3328,6.3307,6.3492,6.3492,6.3617,6.3618,6.3619]}]]